* Astronomy

Members Login
Post Info TOPIC: Comet C/2010 D4 (WISE)


L

Posts: 131433
Date:
RE: Comet C/2010 D4 (WISE)
Permalink  
 


Orbital elements:
C/2010 D4 (WISE)
T 2009 Mar. 30.1057 TT MPC
q 7.147094 (2000.0) P Q
z +0.014818 Peri. 44.4021 -0.2286732 -0.1531577
Node 266.7776 -0.9127137 +0.3772329
e 0.894098 Incl. 105.6553 +0.3386182 +0.9133664
From 63 observations 2010 Feb. 28-Apr. 18.

MPEC 2010 - H19


__________________


L

Posts: 131433
Date:
Permalink  
 

Orbital elements:
C/2010 D4 (WISE)
T 2009 Mar. 29.8732 TT MPC
q 7.146596 (2000.0) P Q
z +0.014811 Peri. 44.3838 -0.2286365 -0.1532059
Node 266.7761 -0.9128294 +0.3769445
e 0.894153 Incl. 105.6548 +0.3383309 +0.9134773
From 58 observations 2010 Feb. 28-Apr. 9.

MPEC 2010 - G71


__________________


L

Posts: 131433
Date:
Permalink  
 

Orbital elements:
C/2010 D4 (WISE)
T 2009 Mar. 28.262 TT MPC
q 7.14598 (2000.0) P Q
z +0.01305 Peri. 44.194 -0.228343 -0.153237
Node 266.738 -0.913978 +0.373962
e 0.90674 Incl. 105.633 +0.335414 +0.914697
From 54 observations 2010 Feb. 28-Mar. 24.

MPEC 2010 - F82


__________________


L

Posts: 131433
Date:
Permalink  
 

Orbital elements:
C/2010 D4 (WISE)
T 2009 Mar. 30.939 TT MPC
q 7.17413 (2000.0) P Q
Peri. 43.916 -0.228922 -0.149435
Node 266.488 -0.915156 +0.369839
e 1.0 Incl. 105.482 +0.331790 +0.917000
From 49 observations 2010 Feb. 28-Mar. 13.

MPEC 2010 - E63


Comet C/2010 D4 (WISE) was discovered by the Wide-field Infrared Survey Explorer (WISE) mission on the 28th February, 2010.
The preliminary orbital elements of the Comet indicate a perihelion passage on the 30th March. 2010, at a distance of approximately 7.17 AU from the Sun.

__________________
Page 1 of 1  sorted by
Quick Reply

Please log in to post quick replies.



Create your own FREE Forum
Report Abuse
Powered by ActiveBoard